Wind_Speed
4 3 4 5 20 5 6 4 5 6 9 9 8 7 7 3 6 1 10 7 6 6 6 5 4 5 3 4 7 7 7 13 8 6 11 7 7 8 8 6 6 1 0 1 2 1 0 0 1
3 2 2 6 11 5 5 5 2 10 9 10 11 10 9 10 7 4 4 6 4 4 4 3 3 6 4 3 5 6 3 6 3 5 5 11 8 9 8 5 4 1 1 0 2 1 1 1 1
3 2 1 8 4 7 2 5 7 8 9 13 12 13 12 13 11 9 7 4 3 2 3 3 2 3 6 2 8 6 5 3 3 3 4 5 4 8 9 6 2 1 0 2 2 1 1 0 0
2 3 1 8 3 2 2 4 6 8 6 8 9 10 12 15 12 12 11 5 2 1 3 5 2 2 1 8 7 4 3 2 3 5 4 7 9 8 11 6 3 1 3 2 2 1 3 2 3
1 9 7 6 4 7 5 4 7 9 8 9 8 8 13 13 11 13 11 7 3 1 3 4 3 2 3 8 5 2 2 2 5 6 8 10 4 7 0 6 3 3 3 3 3 3 4 4 3
2 3 6 9 6 8 7 9 10 10 8 10 12 16 14 10 11 12 13 8 6 3 2 3 4 3 5 6 6 4 4 4 4 5 8 6 4 5 7 4 4 5 4 4 4 4 4 5 4
4 4 8 14 11 6 8 7 7 7 9 14 9 21 17 12 13 14 12 10 6 5 2 3 4 4 5 6 7 7 7 8 5 6 9 6 7 7 5 3 5 6 3 4 5 5 5 6 5
2 7 3 3 6 0 5 8 8 9 7 10 17 17 12 10 14 12 13 10 9 7 4 3 3 4 5 7 6 6 5 5 6 8 9 8 11 6 5 4 5 6 4 6 7 7 8 6 7
4 8 7 5 6 5 6 8 9 10 11 12 14 14 17 15 12 13 15 11 9 6 4 3 3 4 6 6 7 7 6 6 5 6 1 7 7 5 5 4 4 5 5 6 7 8 7 8 9
5 5 6 4 4 7 8 10 11 12 11 12 16 16 6 8 11 13 14 13 11 7 5 3 3 3 6 7 7 7 7 6 5 4 3 5 3 5 5 4 4 6 7 5 6 6 7 9 9
6 7 6 3 5 6 8 9 11 10 12 13 13 13 20 12 11 15 9 7 10 8 5 4 4 4 5 8 10 9 9 8 6 7 3 3 2 6 5 3 7 7 6 6 8 6 9 9 8
9 2 2 3 5 7 8 8 9 12 13 16 15 17 18 16 15 14 9 9 6 9 6 5 4 6 7 10 10 10 11 10 8 6 5 1 3 3 2 5 5 5 5 10 10 9 11 3 9
3 3 7 7 8 8 8 8 9 11 11 13 16 17 19 18 16 14 13 11 9 9 5 5 7 9 7 10 10 11 12 11 9 6 5 5 2 4 1 2 5 7 3 5 8 7 13 6 9
2 5 10 12 11 9 9 10 9 10 13 13 12 12 11 15 16 17 14 11 11 10 9 6 7 9 9 11 12 14 14 10 11 8 7 5 4 7 5 2 2 7 4 8 5 7 9 10 10
7 13 12 12 13 12 13 17 8 15 17 16 13 14 11 9 11 13 13 11 11 10 10 8 7 9 11 9 13 16 12 13 13 10 7 4 5 7 8 4 1 5 10 8 8 10 8 8 9
22 19 6 23 12 10 11 13 11 16 14 17 13 13 15 12 8 10 12 8 12 10 10 10 7 9 10 9 12 10 17 12 14 12 8 7 8 5 3 4 4 6 12 10 4 9 10 7 6
9 5 8 20 18 11 11 8 9 20 15 16 20 13 10 8 10 11 9 11 3 8 12 12 8 9 10 10 9 11 18 12 12 11 8 7 8 8 4 4 6 8 10 7 2 7 9 7 5
9 9 15 16 10 12 12 11 10 9 20 15 13 18 15 12 8 13 13 9 14 9 7 8 9 10 10 12 10 8 4 8 12 12 10 9 6 8 6 3 8 9 10 9 7 6 8 9 6
17 15 15 11 14 13 12 13 18 13 8 21 12 16 17 22 17 12 14 10 10 12 7 12 6 9 10 12 10 7 6 7 12 15 18 15 8 10 6 7 11 10 10 7 8 7 7 6 8
11 11 11 10 16 13 13 14 18 14 17 27 18 16 16 21 20 17 10 6 10 7 5 7 10 8 11 12 11 9 11 12 13 20 21 19 12 10 11 11 10 10 8 9 8 7 7 6 5
11 12 12 13 13 9 12 14 8 13 21 21 9 17 17 19 22 18 13 9 9 8 3 6 8 8 8 11 12 10 11 11 17 21 27 15 11 11 8 8 12 9 10 11 11 10 8 7 7
10 8 12 13 11 10 9 10 13 17 21 12 13 11 15 18 18 20 16 14 15 11 8 6 6 8 8 10 12 11 10 12 15 14 26 21 13 9 5 7 13 13 13 16 15 14 10 6 6
10 11 10 8 11 5 10 10 14 15 20 4 10 25 10 11 16 22 19 15 14 13 13 7 6 6 10 10 11 13 11 12 13 12 15 17 15 9 7 4 11 14 10 7 8 14 11 9 9
10 10 8 5 12 10 10 5 6 13 3 18 21 22 12 12 14 19 23 20 18 13 10 7 6 7 9 9 11 11 11 12 14 13 14 18 14 8 6 8 8 14 9 9 11 15 14 10 8
7 8 9 11 15 11 8 2 10 17 27 28 31 14 20 12 15 17 21 20 18 14 11 7 8 6 11 7 9 11 9 11 15 14 18 19 13 8 4 7 7 12 10 9 10 8 9 6 7
9 9 11 12 14 12 17 18 13 22 18 14 5 12 20 16 17 17 17 15 16 18 14 9 9 10 10 9 12 12 11 11 11 8 19 17 14 9 8 9 6 8 11 11 10 7 5 5 8
8 8 9 14 11 14 9 23 8 12 5 2 10 16 16 20 17 18 19 12 11 15 15 14 11 10 12 12 10 11 10 9 9 10 13 17 12 11 12 13 10 11 10 11 9 6 8 8 6
9 6 11 12 15 15 15 17 25 17 18 11 20 13 22 23 16 18 19 14 10 13 16 15 15 12 12 14 12 12 12 8 7 6 10 8 12 13 13 13 13 12 10 10 10 8 8 9 8
12 21 12 13 13 15 15 17 18 18 20 26 38 23 20 21 18 18 19 16 11 12 13 16 15 14 12 13 14 13 12 10 8 7 7 8 8 10 14 17 16 13 12 12 11 10 14 13 10
23 18 21 22 17 18 21 19 24 26 28 25 32 29 22 22 25 25 18 22 16 15 12 13 16 14 13 12 13 14 13 14 11 5 4 8 8 10 19 15 9 11 13 15 17 13 15 13 13
Wind_Direction
147 106 84 108 27 54 40 27 22 13 322 5 342 359 11 23 339 285 326 335 342 337 340 38 29 356 38 103 86 92 123 133 143 167 156 167 144 140 133 125 112 65 23 155 96 101 131 214 177
188 110 127 83 292 280 336 332 28 327 320 327 320 321 348 355 345 342 323 325 348 321 312 21 26 28 54 90 119 101 95 144 123 63 89 153 169 145 133 133 95 80 259 59 69 125 143 197 196
201 231 203 236 305 352 1 315 323 320 289 296 294 308 339 344 342 345 357 339 1 300 271 322 58 359 322 160 130 114 92 82 114 78 359 64 220 172 146 130 131 123 213 59 64 85 110 161 314
213 227 327 305 52 263 326 358 354 345 335 306 297 325 331 328 341 334 347 338 16 341 259 302 323 346 60 165 148 141 98 81 16 6 6 350 324 212 140 137 152 150 68 63 101 64 50 58 60
66 45 322 287 283 289 275 288 320 311 306 318 322 284 299 313 329 324 341 352 314 224 264 284 265 175 173 190 185 168 146 18 9 6 360 341 342 196 304 124 140 89 70 86 96 67 64 71 76
130 58 237 345 279 265 284 290 295 291 289 303 316 291 290 322 324 321 332 359 298 329 297 269 257 224 197 197 201 223 276 310 343 344 343 332 140 188 137 95 98 89 90 117 79 78 76 79 81
120 154 281 302 282 306 318 325 324 318 325 293 300 298 299 321 328 320 327 345 329 315 314 266 246 244 239 224 235 253 285 273 278 304 316 222 153 119 120 79 81 74 82 100 82 80 86 80 94
206 156 116 279 273 311 338 347 334 332 325 299 301 286 220 328 312 316 314 346 329 328 325 287 260 257 240 240 244 262 278 276 301 327 332 97 131 113 84 70 79 79 80 85 81 83 75 95 90
358 348 272 270 308 337 353 349 337 338 324 301 300 298 282 294 315 316 308 333 320 320 304 276 277 271 254 245 246 244 256 290 320 321 304 77 87 89 76 79 91 69 83 93 91 82 80 98 87
270 359 264 258 319 335 346 353 350 348 335 311 325 300 211 313 302 301 315 323 324 316 290 270 255 267 261 262 252 244 260 267 304 309 221 94 95 73 22 51 88 64 67 95 95 67 91 98 99
309 274 253 283 318 333 342 342 344 344 338 322 329 319 278 8 319 318 320 321 330 324 294 247 245 253 259 250 243 240 251 263 282 307 358 15 79 115 223 74 72 66 101 121 104 89 88 79 87
333 278 331 329 322 329 333 333 334 335 339 327 330 320 331 340 333 322 333 308 323 330 330 268 228 232 242 251 247 245 256 257 268 295 320 10 236 191 170 90 90 78 131 128 113 94 84 43 90
333 352 14 7 352 340 343 334 330 323 322 326 330 340 340 332 326 320 317 302 319 321 325 275 246 237 226 250 249 247 253 266 257 269 278 295 260 196 186 172 145 117 359 138 106 110 111 106 93
83 49 23 4 356 354 334 329 338 327 317 316 323 318 317 321 324 325 327 301 299 310 314 291 264 250 254 257 258 243 241 248 262 244 256 274 245 219 204 229 107 133 156 119 139 120 95 94 97
60 52 334 7 354 0 325 7 17 342 330 319 322 341 344 333 329 335 350 314 305 298 297 278 262 259 265 279 283 237 245 242 240 233 239 250 247 247 167 212 291 160 184 129 154 133 99 92 104
27 15 40 310 334 356 357 341 323 350 345 336 341 1 5 10 348 335 336 344 310 294 295 289 281 268 269 272 284 292 323 225 226 223 223 236 236 216 197 226 198 118 161 174 134 132 116 107 117
294 299 340 297 325 347 345 348 333 330 346 357 342 354 12 39 8 356 341 323 303 271 291 292 281 281 275 273 262 293 305 224 225 226 221 234 232 213 221 267 206 158 170 187 185 146 131 132 117
303 295 233 283 298 321 333 347 341 317 327 354 6 339 346 2 353 357 353 323 328 325 295 296 297 275 266 275 273 287 306 208 220 218 219 226 220 214 237 211 196 171 160 172 172 176 153 146 130
249 239 254 289 299 311 323 345 353 333 324 310 12 357 336 356 4 351 341 325 317 318 317 310 283 272 268 266 267 260 261 246 222 230 226 202 199 203 227 209 191 192 183 174 179 167 161 151 138
254 259 279 303 299 312 321 345 354 326 340 343 331 347 355 356 359 355 337 322 315 335 341 298 303 293 276 266 266 257 252 238 244 238 231 252 215 212 228 233 217 186 179 184 181 182 187 185 165
267 285 293 292 290 295 349 313 317 311 315 329 351 352 348 355 345 357 358 330 309 311 340 289 297 309 289 269 266 257 264 265 263 254 225 204 207 212 222 221 194 211 233 210 188 204 203 182 169
275 265 266 290 310 317 299 359 344 282 319 355 2 309 316 344 350 356 4 327 320 312 307 270 285 304 294 276 264 273 269 276 283 272 219 191 193 199 223 212 206 234 254 231 205 193 191 186 170
269 264 283 325 336 290 21 323 326 313 309 230 278 317 311 329 350 349 8 4 331 340 331 271 245 281 283 274 267 269 271 271 273 270 214 171 175 193 191 168 209 231 234 181 207 189 200 176 171
276 279 286 311 342 322 298 209 299 283 259 276 302 308 313 314 329 340 343 355 352 334 332 337 279 245 277 276 262 261 273 278 267 246 226 181 175 187 203 224 235 216 224 235 233 195 199 186 187
285 292 313 325 302 358 301 193 275 278 283 291 304 292 302 312 317 324 334 343 346 345 332 329 304 269 261 276 259 259 268 272 257 241 196 183 179 194 201 183 202 217 221 218 212 199 206 202 219
237 270 277 289 298 275 312 327 286 284 266 303 303 279 284 299 305 316 323 330 333 341 336 326 305 282 269 267 261 257 256 278 267 250 190 183 190 207 213 210 231 219 213 227 235 229 240 202 230
262 258 279 284 285 285 282 272 248 222 261 293 239 269 305 312 297 302 307 314 334 333 333 322 298 293 274 270 264 251 252 274 281 187 179 180 196 217 211 214 219 211 225 239 237 246 245 271 203
325 256 248 248 271 271 267 285 290 297 252 273 272 264 306 302 289 291 297 295 307 327 332 328 310 288 282 262 260 250 246 248 266 305 144 197 216 219 211 209 208 206 225 246 249 232 234 242 234
287 296 277 270 253 266 281 300 307 308 288 268 270 273 294 295 282 284 289 278 285 311 318 323 316 299 281 275 265 250 243 240 248 276 177 219 215 211 217 209 207 220 222 235 250 252 233 235 238
244 247 266 288 278 269 253 233 280 295 272 218 248 258 288 282 279 276 282 274 268 295 308 312 314 307 293 277 270 248 243 236 228 230 202 245 240 224 254 203 199 227 238 236 240 239 246 251 253
Height
5908 5909 5909 5909 5886 5907 5908 5907 5907 5906 5906 5905 5903 5902 5903 5902 5900 5903 5899 5899 5898 5897 5897 5897 5897 5896 5896 5897 5897 5898 5898 5897 5897 5898 5900 5900 5900 5900 5900 5899 5898 5899 5899 5899 5899 5899 5899 5898 5897
5909 5910 5910 5910 5908 5906 5908 5908 5907 5907 5908 5906 5903 5902 5902 5901 5901 5902 5902 5900 5899 5899 5899 5898 5897 5897 5897 5898 5899 5898 5899 5898 5898 5899 5899 5899 5899 5899 5899 5899 5899 5899 5900 5900 5900 5899 5899 5898 5898
5910 5911 5910 5906 5905 5907 5908 5908 5908 5908 5908 5907 5905 5902 5902 5902 5901 5902 5902 5900 5899 5900 5900 5900 5899 5898 5898 5897 5899 5900 5899 5899 5899 5899 5898 5899 5898 5898 5899 5899 5899 5899 5900 5900 5900 5899 5898 5898 5898
5911 5912 5911 5903 5906 5909 5910 5909 5908 5908 5907 5906 5904 5905 5904 5902 5903 5900 5901 5901 5900 5900 5901 5901 5900 5900 5899 5900 5900 5901 5900 5900 5899 5899 5899 5898 5898 5898 5899 5899 5900 5900 5899 5900 5900 5898 5898 5899 5898
5910 5911 5911 5910 5910 5911 5911 5910 5909 5909 5907 5905 5905 5905 5902 5902 5903 5900 5901 5902 5899 5901 5900 5901 5901 5901 5901 5902 5902 5902 5901 5901 5900 5900 5898 5897 5897 5899 5899 5900 5900 5900 5900 5901 5900 5899 5899 5899 5899
5910 5911 5911 5908 5910 5910 5910 5910 5909 5909 5907 5906 5904 5901 5901 5900 5899 5899 5899 5903 5898 5900 5899 5900 5901 5901 5902 5903 5903 5902 5901 5901 5901 5900 5899 5898 5897 5898 5900 5900 5901 5901 5901 5901 5899 5899 5900 5899 5899
5912 5911 5911 5911 5911 5909 5909 5908 5907 5907 5906 5906 5904 5903 5900 5899 5901 5899 5900 5901 5900 5898 5899 5899 5900 5900 5900 5901 5902 5902 5901 5901 5900 5899 5898 5897 5898 5899 5901 5901 5901 5901 5902 5901 5901 5901 5900 5899 5899
5908 5908 5910 5910 5910 5908 5908 5908 5907 5906 5907 5906 5900 5899 5883 5895 5899 5899 5899 5901 5898 5898 5898 5899 5899 5899 5899 5900 5901 5902 5901 5901 5901 5899 5898 5897 5898 5901 5901 5902 5902 5902 5902 5902 5903 5903 5900 5900 5900
5910 5907 5908 5910 5908 5907 5907 5907 5906 5905 5905 5903 5901 5897 5895 5896 5895 5897 5897 5900 5899 5897 5897 5898 5898 5898 5898 5899 5899 5900 5900 5900 5900 5900 5900 5900 5901 5902 5902 5903 5903 5903 5903 5904 5904 5902 5901 5902 5901
5911 5908 5909 5909 5907 5906 5905 5905 5904 5904 5903 5901 5900 5895 5878 5892 5895 5897 5897 5897 5897 5896 5896 5897 5897 5898 5898 5897 5898 5899 5899 5900 5901 5901 5900 5900 5902 5903 5904 5904 5905 5905 5903 5905 5905 5902 5902 5902 5901
5910 5911 5909 5908 5907 5906 5905 5904 5904 5904 5903 5901 5902 5898 5893 5890 5896 5895 5897 5897 5896 5896 5896 5897 5896 5896 5898 5897 5897 5898 5899 5899 5900 5901 5901 5901 5903 5904 5906 5906 5906 5904 5904 5904 5903 5901 5904 5903 5903
5910 5910 5909 5908 5907 5906 5906 5906 5905 5904 5903 5899 5900 5897 5894 5894 5895 5895 5897 5895 5897 5893 5896 5895 5896 5889 5896 5895 5896 5897 5898 5899 5900 5901 5902 5902 5903 5905 5904 5905 5905 5906 5903 5904 5903 5902 5904 5908 5907
5911 5910 5909 5908 5907 5907 5906 5906 5905 5905 5903 5901 5896 5894 5894 5895 5896 5896 5894 5894 5894 5893 5895 5896 5895 5896 5895 5894 5895 5895 5897 5898 5899 5900 5902 5902 5902 5903 5904 5903 5905 5905 5904 5905 5905 5905 5904 5908 5909
5911 5910 5910 5909 5908 5907 5904 5901 5902 5903 5902 5901 5900 5899 5898 5896 5894 5893 5893 5893 5891 5891 5892 5894 5894 5893 5893 5893 5894 5893 5895 5897 5897 5899 5901 5902 5902 5903 5904 5903 5906 5908 5909 5907 5910 5909 5905 5908 5912
5913 5911 5914 5910 5909 5908 5903 5904 5899 5900 5900 5898 5898 5897 5896 5896 5893 5892 5892 5890 5890 5891 5891 5892 5892 5891 5891 5892 5893 5890 5892 5896 5897 5898 5899 5901 5902 5902 5902 5903 5906 5910 5909 5909 5909 5908 5909 5910 5914
5912 5915 5917 5912 5910 5909 5906 5902 5900 5898 5900 5897 5895 5895 5894 5893 5892 5891 5889 5890 5888 5890 5891 5890 5891 5890 5889 5890 5890 5891 5891 5892 5896 5898 5898 5900 5900 5902 5902 5902 5906 5909 5911 5910 5899 5911 5908 5911 5914
5916 5920 5917 5915 5910 5909 5908 5907 5906 5902 5899 5897 5893 5892 5892 5892 5892 5891 5889 5887 5890 5889 5889 5888 5889 5888 5888 5888 5889 5890 5890 5891 5894 5897 5898 5899 5900 5900 5902 5901 5904 5908 5909 5910 5908 5909 5910 5915 5915
5919 5917 5918 5914 5913 5908 5907 5905 5904 5903 5898 5897 5896 5892 5890 5892 5892 5890 5889 5887 5884 5885 5887 5887 5886 5887 5887 5886 5888 5889 5889 5891 5893 5896 5896 5895 5897 5900 5902 5901 5902 5905 5908 5908 5907 5910 5914 5914 5915
5914 5914 5914 5913 5911 5907 5905 5904 5904 5903 5901 5898 5896 5894 5893 5890 5888 5889 5888 5886 5885 5881 5883 5882 5886 5885 5884 5886 5887 5888 5889 5890 5893 5894 5891 5894 5895 5897 5902 5903 5904 5904 5908 5909 5911 5915 5914 5912 5913
5911 5911 5911 5910 5911 5907 5905 5904 5904 5903 5902 5900 5895 5893 5893 5890 5889 5888 5886 5886 5883 5883 5881 5881 5881 5883 5882 5883 5885 5887 5888 5889 5891 5890 5890 5869 5893 5895 5901 5902 5903 5906 5907 5909 5912 5914 5913 5909 5917
5909 5909 5909 5909 5906 5906 5904 5905 5905 5904 5900 5899 5896 5895 5893 5891 5887 5887 5885 5884 5883 5881 5881 5880 5880 5880 5880 5881 5882 5884 5886 5887 5887 5887 5883 5889 5890 5895 5898 5901 5902 5904 5905 5906 5909 5912 5912 5914 5917
5907 5908 5908 5906 5905 5904 5903 5903 5904 5899 5900 5896 5896 5897 5894 5891 5889 5886 5885 5883 5882 5882 5880 5879 5879 5879 5879 5879 5881 5881 5883 5884 5883 5884 5885 5881 5890 5893 5896 5897 5900 5900 5904 5904 5907 5909 5913 5914 5914
5904 5904 5904 5904 5903 5902 5903 5906 5899 5900 5897 5896 5896 5894 5894 5892 5889 5884 5883 5883 5881 5879 5878 5879 5877 5878 5878 5878 5879 5879 5880 5880 5879 5879 5882 5882 5888 5893 5895 5897 5899 5898 5902 5903 5907 5909 5912 5913 5913
5901 5901 5902 5903 5901 5900 5904 5906 5909 5899 5897 5894 5894 5891 5891 5890 5888 5886 5881 5881 5880 5879 5878 5876 5877 5876 5877 5877 5877 5877 5877 5877 5878 5878 5881 5884 5888 5892 5894 5896 5898 5899 5901 5904 5901 5906 5911 5911 5913
5899 5900 5901 5903 5902 5901 5898 5903 5905 5899 5895 5894 5892 5889 5886 5888 5886 5885 5882 5879 5878 5876 5876 5876 5875 5875 5876 5875 5875 5876 5875 5874 5874 5875 5879 5882 5886 5890 5893 5896 5898 5899 5902 5904 5905 5908 5909 5910 5911
5900 5902 5904 5903 5903 5906 5902 5901 5901 5896 5892 5890 5888 5887 5884 5885 5882 5883 5882 5881 5878 5874 5874 5874 5875 5875 5875 5874 5873 5874 5873 5872 5865 5871 5876 5881 5886 5889 5892 5895 5898 5899 5901 5903 5905 5908 5911 5913 5914
5896 5898 5901 5901 5901 5902 5904 5898 5892 5883 5888 5887 5884 5883 5882 5882 5880 5880 5880 5879 5877 5875 5874 5873 5873 5873 5873 5872 5872 5871 5870 5869 5867 5870 5875 5881 5883 5885 5888 5891 5896 5899 5901 5901 5903 5907 5909 5911 5912
5892 5893 5895 5897 5897 5896 5896 5892 5885 5889 5887 5884 5876 5882 5881 5879 5879 5876 5876 5876 5876 5874 5872 5872 5871 5871 5871 5870 5870 5870 5869 5868 5869 5868 5874 5878 5878 5881 5887 5891 5894 5895 5899 5900 5902 5905 5909 5910 5911
5893 5888 5890 5892 5892 5892 5893 5892 5882 5881 5883 5882 5867 5873 5876 5876 5877 5875 5874 5874 5874 5873 5872 5870 5870 5869 5869 5869 5869 5869 5868 5868 5868 5872 5873 5875 5878 5882 5885 5887 5890 5896 5897 5898 5900 5902 5905 5909 5909
5883 5886 5887 5886 5887 5887 5885 5888 5879 5876 5872 5863 5861 5865 5870 5871 5872 5872 5871 5870 5871 5871 5870 5869 5867 5868 5867 5866 5866 5867 5867 5868 5869 5871 5872 5872 5878 5881 5881 5885 5886 5892 5896 5897 5899 5900 5902 5904 5906